User: anonymous   Login
Location: Theydon Bois
(51.6750°N, 0.1050°E)
Time: 00:51:21
(UTC+00:00)
Language:

Cosmos 1758 - Orbit

View from above orbital plane
View from above orbital plane
View from above satellite
View from above satellite

Ground track
Ground track

The orbit data is extracted from the following two-line orbital elements,

1 16791U 86046A   17348.77378793  .00000674  00000-0  45907-4 0  9998
2 16791  82.4704 216.1076 0016007 189.1538 170.9400 15.04585461712834
Epoch (UTC): 14 December 2017 18:34:15
Eccentricity: 0.0016007
inclination: 82.4704°
perigee height: 541 km
apogee height: 564 km
right ascension of ascending node: 216.1076°
argument of perigee: 189.1538°
revolutions per day: 15.04585461
mean anomaly at epoch: 170.9400°
orbit number at epoch: 71283

The dashed part of the orbit path shows where the satellite is in the earth's shadow,  

DLR